This is the latest recevied weather packets stored in our database for station/object N3DXC. If no packets are shown the sender has not sent any weather packets the latest 1 day(s).
| Time | Temp. | Humidity | Pressure | Rain* | Wind** | Luminosity | Snow |
|---|---|---|---|---|---|---|---|
| 1777994690 | 20° C | 50% | 1009.5 hPa | 0 mm | 9.83 m/s, 230° | - | - |
| 1777994390 | 20° C | 48% | 1009.5 hPa | 0 mm | 6.71 m/s, 237° | - | - |
| 1777994090 | 20.56° C | 52% | 1009.6 hPa | 0 mm | 8.49 m/s, 213° | - | - |
| 1777993790 | 20° C | 49% | 1009.5 hPa | 0 mm | 8.05 m/s, 220° | - | - |
| 1777993491 | 20° C | 50% | 1009.5 hPa | 0 mm | 8.05 m/s, 239° | - | - |
| 1777993190 | 19.44° C | 51% | 1009.8 hPa | 0 mm | 7.6 m/s, 234° | - | - |
| 1777992890 | 20° C | 51% | 1009.9 hPa | 0 mm | 8.94 m/s, 195° | - | - |
| 1777992590 | 19.44° C | 52% | 1009.8 hPa | 0 mm | 10.28 m/s, 233° | - | - |
| 1777992290 | 19.44° C | 51% | 1009.8 hPa | 0 mm | 12.96 m/s, 247° | - | - |
| 1777991990 | 19.44° C | 53% | 1009.8 hPa | 0 mm | 9.83 m/s, 267° | - | - |
| 1777991690 | 20° C | 50% | 1009.8 hPa | 0 mm | 8.05 m/s, 248° | - | - |
| 1777991390 | 20° C | 52% | 1009.8 hPa | 0 mm | 8.05 m/s, 222° | - | - |
| 1777991090 | 20° C | 54% | 1009.9 hPa | 0 mm | 8.49 m/s, 254° | - | - |
| 1777990790 | 19.44° C | 54% | 1009.8 hPa | 0 mm | 6.71 m/s, 241° | - | - |
| 1777990491 | 19.44° C | 53% | 1009.9 hPa | 0 mm | 7.15 m/s, 223° | - | - |
| 1777990190 | 18.89° C | 53% | 1009.9 hPa | 0 mm | 11.18 m/s, 223° | - | - |
| 1777989891 | 18.89° C | 53% | 1009.8 hPa | 0 mm | 6.26 m/s, 225° | - | - |
| 1777989590 | 18.89° C | 53% | 1009.8 hPa | 0 mm | 9.39 m/s, 244° | - | - |
| 1777989290 | 18.89° C | 53% | 1009.8 hPa | 0 mm | 6.71 m/s, 237° | - | - |
| 1777988990 | 18.89° C | 55% | 1009.8 hPa | 0 mm | 7.6 m/s, 232° | - | - |
| 1777988690 | 18.89° C | 55% | 1009.9 hPa | 0 mm | 8.94 m/s, 251° | - | - |
| 1777988390 | 18.33° C | 56% | 1009.8 hPa | 0 mm | 7.15 m/s, 233° | - | - |
| 1777988090 | 18.33° C | 57% | 1009.6 hPa | 0 mm | 7.6 m/s, 233° | - | - |
| 1777987790 | 18.33° C | 58% | 1009.8 hPa | 0 mm | 6.26 m/s, 234° | - | - |
| 1777987490 | 18.33° C | 57% | 1009.6 hPa | 0 mm | 5.36 m/s, 250° | - | - |
* Rain latest hour (hover to see other rain measurements)
** Current wind speed in m/s (hover to see current wind gust speed)